[[{"header":{"parameterUnit":"m.s-1","parameterCategory":2,"la1":30.2991,"la2":30.254,"lo1":-89.0895,"lo2":-89.0444,"dy":0.0017,"dx":0.0017,"nx":28,"ny":28,"refTime":"2025-04-14T09:00:00:Z","depth":"0","parameterNumber":2,"parameterNumberName":"U-component_of_CURRENTS"},"data":[0,0,0,0,0,0,0,0,0,0,0,0,0,0,0,0,0,0,0,0,0,0,0,0,0,0,0,0,0,0,0,0,0,0,0,0,0,0,0,0,0,0,0,0,0,0,0,0,0,0,0,0,0,0,0,0,0,0,0.2893,0.2894,0,0.2938,0.2938,0.2939,0.2954,0.2954,0.2954,0.2954,0.2961,0.2961,0.2961,0,0,0,0,0,0,0,0,0,0,0,0,0,0.2822,0.2823,0.2893,0.2894,0.2895,0.2938,0.2938,0.2939,0.2954,0.2954,0.2954,0.2954,0.2961,0.2961,0.2961,0,0,0,0,0,0,0,0,0,0,0,0,0,0.2857,0.2824,0.2893,0.2909,0.2911,0.2938,0.2938,0.2939,0.2954,0.2954,0.2954,0.2954,0.2961,0.2961,0.2961,0.2963,0,0,0.2962,0.2962,0,0,0,0,0,0,0,0,0.2855,0.2859,0.2906,0.2908,0.291,0.2942,0.2916,0.2946,0.2954,0.2936,0.2954,0.2954,0.2953,0.2954,0.296,0.2963,0.2964,0.2962,0.2963,0.2963,0.2963,0,0,0,0,0,0,0,0.2853,0.2857,0.2909,0.2907,0.2909,0.2915,0.2919,0.2922,0.2941,0.2937,0.2939,0.2947,0.2953,0.2959,0.296,0.2964,0.2962,0.2963,0.2963,0.2963,0.3047,0.3049,0,0,0,0,0,0,0.2851,0.2855,0.2908,0.2911,0.2884,0.2916,0.2921,0.293,0.2942,0.2945,0.2947,0.2948,0.2959,0.296,0.296,0.3013,0.2963,0.2963,0.2963,0.3045,0.3047,0.3049,0,0,0,0,0,0,0.2849,0.2855,0.2906,0.2885,0.2892,0.2917,0.2928,0.2931,0.2939,0.295,0.2952,0.2952,0.2959,0.296,0.2978,0.3011,0.2963,0.2963,0.3042,0.3045,0.3048,0.3086,0,0,0,0,0,0,0.2847,0.2854,0.286,0.2885,0.2894,0.2927,0.2928,0.2932,0.2945,0.2946,0.2955,0.2956,0.2959,0.2978,0.2978,0.3011,0.2963,0.304,0.3044,0.3047,0.3082,0.309,0.3097,0,0,0,0,0,0.2844,0.2849,0.286,0.2867,0.2901,0.2928,0.2933,0.2949,0.2945,0.2954,0.2966,0.2955,0.3004,0.2979,0.2979,0.3013,0.3038,0.3043,0.3047,0.3079,0.3088,0.3097,0,0,0,0,0,0,0.2818,0.2852,0.2865,0.2879,0.2906,0.2931,0.2939,0.2948,0.2964,0.2964,0.2967,0.297,0.3002,0.3004,0.2976,0.3053,0.3025,0.303,0.3049,0.3058,0.3065,0.3075,0.2964,0,0,0,0,0,0.2817,0.2829,0.2866,0.2876,0.2891,0.2915,0.2926,0.2941,0.2959,0.2965,0.2974,0.2993,0.3022,0.3034,0.3052,0.3081,0.3114,0.311,0.3118,0.3123,0.3135,0.3214,0.323,0.3065,0.3065,0.3065,0,0,0.2807,0.2828,0.2834,0.2871,0.2891,0.2922,0.2921,0.2943,0.2973,0.2963,0.2996,0.3009,0.3035,0.3077,0.3094,0.3082,0.3192,0.3129,0.3134,0.3143,0.3221,0.3237,0.3251,0.3068,0.3067,0.3067,0,0,0.2793,0.2817,0.2825,0.2854,0.2892,0.292,0.2927,0.296,0.298,0.3015,0.3026,0.3062,0.3089,0.3127,0.3148,0.3206,0.3223,0.3213,0.326,0.3337,0.3351,0.3363,0.3438,0.3457,0.3222,0.3222,0.3222,0,0.278,0.2805,0.2831,0.2855,0.2885,0.2921,0.2949,0.298,0.3015,0.3043,0.3032,0.3116,0.3123,0.3202,0.3225,0.3223,0.3267,0.3219,0.3346,0.3359,0.3371,0.3444,0.3465,0.3224,0.3224,0.3224,0.3223,0,0.278,0.2809,0.2818,0.2869,0.2903,0.2933,0.2989,0.3023,0.3052,0.3089,0.3162,0.3189,0.3244,0.3258,0.3256,0.3355,0.3359,0.3339,0.3319,0.339,0.3463,0.3483,0.3227,0.3227,0.3226,0.3225,0,0,0.2732,0.2804,0.2807,0.2846,0.2918,0.2948,0.301,0.3084,0.3143,0.3182,0.3262,0.3312,0.3333,0.3359,0.3373,0.3437,0.3556,0.3426,0.3429,0.3493,0.3736,0.3708,0.3728,0.3558,0.3561,0.3564,0.3755,0,0.2728,0.2769,0.2816,0.2879,0.2916,0.2986,0.3049,0.3121,0.319,0.3276,0.333,0.3406,0.3373,0.3413,0.3471,0.3539,0.3611,0.3506,0.3664,0.3669,0.3629,0.3751,0.3555,0.3706,0.3775,0.3778,0.3781,0,0.2715,0.2753,0.2798,0.2908,0.2932,0.298,0.3106,0.3172,0.33,0.3358,0.3444,0.3488,0.3594,0.3551,0.3711,0.3647,0.3696,0.3741,0.3749,0.3724,0.368,0.3646,0.3741,0.3667,0.3813,0.381,0.3808,0,0.2663,0.2749,0.2786,0.2818,0.2937,0.2983,0.306,0.3187,0.3262,0.342,0.3489,0.3613,0.3689,0.3773,0.3849,0.3796,0.403,0.3966,0.3992,0.3991,0.3857,0.3837,0.3889,0.4087,0.4087,0.4086,0.4086,0,0.2643,0.2679,0.2766,0.2789,0.2866,0.2962,0.3063,0.3165,0.3312,0.3428,0.3523,0.3637,0.3747,0.3874,0.3922,0.4041,0.4093,0.4039,0.4053,0.3865,0.3845,0.3798,0.3767,0.4093,0.4092,0.409,0.4089,0,0.258,0.2629,0.2689,0.2802,0.2838,0.2895,0.3045,0.3132,0.3276,0.3434,0.3487,0.3683,0.3866,0.3971,0.4148,0.4139,0.4149,0.4273,0.4049,0.4032,0.3943,0.392,0.3892,0.377,0.4334,0.4334,0.4335,0,0.2555,0.257,0.2671,0.2711,0.2763,0.2855,0.293,0.3091,0.3195,0.3466,0.3545,0.3765,0.3903,0.4151,0.4208,0.4322,0.4201,0.4199,0.405,0.3953,0.394,0.3795,0.3681,0.3896,0.3893,0.389,0.3888,0,0.2524,0.2549,0.26,0.2664,0.2735,0.2817,0.2941,0.3001,0.3222,0.3341,0.3551,0.3682,0.394,0.3987,0.4147,0.4181,0.3994,0.415,0.4105,0.3665,0.3456,0.3337,0.3765,0.3866,0.3868,0.3869,0.3871,0.3872,0.2502,0.2518,0.2573,0.2631,0.2706,0.2774,0.2794,0.2938,0.3055,0.322,0.3439,0.3562,0.3742,0.3929,0.3956,0.3894,0.3879,0.3764,0.3771,0.3654,0.3446,0.3838,0.3914,0.3916,0.3918,0.392,0.3922,0,0.2454,0.2479,0.2544,0.2592,0.2625,0.2695,0.2794,0.279,0.2859,0.3063,0.3189,0.3341,0.3424,0.3564,0.3627,0.3523,0.3328,0.3448,0.3177,0.31,0.3505,0.3393,0.3291,0.3291,0.3291,0.3291,0.3291,0.3291,0.2428,0.2439,0.2464,0.2489,0.2523,0.2502,0.2519,0.254,0.2631,0.271,0.279,0.2927,0.3253,0.3451,0.34,0.3305,0.3052,0.2923,0.2955,0.3231,0.3258,0.3284,0.3171,0.3024,0.3024,0.2352,0.2348,0.2344]},{"header":{"parameterUnit":"m.s-1","parameterCategory":2,"la1":30.2991,"la2":30.254,"lo1":-89.0895,"lo2":-89.0444,"dy":0.0017,"dx":0.0017,"nx":28,"ny":28,"refTime":"2025-04-14T09:00:00:Z","depth":"0","parameterNumber":3,"parameterNumberName":"V-component_of_CURRENTS"},"data":[0,0,0,0,0,0,0,0,0,0,0,0,0,0,0,0,0,0,0,0,0,0,0,0,0,0,0,0,0,0,0,0,0,0,0,0,0,0,0,0,0,0,0,0,0,0,0,0,0,0,0,0,0,0,0,0,0,0,-0.0334,-0.0335,0,-0.0427,-0.0428,-0.0429,-0.0493,-0.0493,-0.0494,-0.0494,-0.0634,-0.0638,-0.0641,0,0,0,0,0,0,0,0,0,0,0,0,0,-0.0242,-0.0243,-0.0334,-0.0335,-0.0336,-0.0427,-0.0428,-0.043,-0.0493,-0.0493,-0.0494,-0.0494,-0.0633,-0.0637,-0.0641,0,0,0,0,0,0,0,0,0,0,0,0,0,-0.0303,-0.0243,-0.0334,-0.0379,-0.0384,-0.0427,-0.0428,-0.043,-0.0492,-0.0493,-0.0494,-0.0494,-0.0632,-0.0637,-0.0642,-0.0659,0,0,-0.0657,-0.0659,0,0,0,0,0,0,0,0,-0.0299,-0.0306,-0.0371,-0.0376,-0.0381,-0.0449,-0.0447,-0.0509,-0.0492,-0.0451,-0.0494,-0.0495,-0.0576,-0.0586,-0.0601,-0.0665,-0.0671,-0.0657,-0.066,-0.0663,-0.0664,0,0,0,0,0,0,0,-0.0295,-0.0303,-0.0371,-0.0372,-0.0378,-0.0405,-0.0414,-0.0459,-0.051,-0.0455,-0.046,-0.047,-0.058,-0.0596,-0.0605,-0.0673,-0.0657,-0.0662,-0.0665,-0.0667,-0.0767,-0.0767,0,0,0,0,0,0,-0.0281,-0.0298,-0.0368,-0.0374,-0.0341,-0.0406,-0.0416,-0.0427,-0.0508,-0.0521,-0.0469,-0.0472,-0.0587,-0.0599,-0.061,-0.0628,-0.0663,-0.0667,-0.067,-0.0768,-0.0767,-0.0767,0,0,0,0,0,0,-0.0279,-0.0286,-0.0364,-0.0338,-0.035,-0.0406,-0.0418,-0.0428,-0.0444,-0.0519,-0.0532,-0.0474,-0.0588,-0.0603,-0.0639,-0.0634,-0.0669,-0.0674,-0.0768,-0.0767,-0.0767,-0.0668,0,0,0,0,0,0,-0.0276,-0.0285,-0.0284,-0.0337,-0.0351,-0.0381,-0.0418,-0.0429,-0.0449,-0.0454,-0.0528,-0.0541,-0.059,-0.0631,-0.0643,-0.0642,-0.0678,-0.0768,-0.0768,-0.0767,-0.0672,-0.0664,-0.0658,0,0,0,0,0,-0.0272,-0.0263,-0.0284,-0.0292,-0.0349,-0.038,-0.0389,-0.0432,-0.0448,-0.0449,-0.0494,-0.0539,-0.0637,-0.0634,-0.0649,-0.0649,-0.0769,-0.0768,-0.0767,-0.0675,-0.0666,-0.0658,0,0,0,0,0,0,-0.0222,-0.0271,-0.0294,-0.0301,-0.0335,-0.0391,-0.0393,-0.0423,-0.0459,-0.0463,-0.0531,-0.0548,-0.0579,-0.0625,-0.0621,-0.0677,-0.0712,-0.0714,-0.0637,-0.0629,-0.0622,-0.0598,-0.0682,0,0,0,0,0,-0.0211,-0.0216,-0.027,-0.0273,-0.0286,-0.0338,-0.0354,-0.0384,-0.0425,-0.0441,-0.0492,-0.0545,-0.0588,-0.0615,-0.0661,-0.0689,-0.0715,-0.0701,-0.0694,-0.0688,-0.0679,-0.0708,-0.0702,-0.0764,-0.0764,-0.0765,0,0,-0.0193,-0.0218,-0.0223,-0.0262,-0.0291,-0.0302,-0.0349,-0.0367,-0.0376,-0.0451,-0.0472,-0.0521,-0.0589,-0.0618,-0.0637,-0.0657,-0.068,-0.0687,-0.0681,-0.0675,-0.0707,-0.07,-0.0695,-0.0764,-0.0764,-0.0764,0,0,-0.0154,-0.0181,-0.0173,-0.0196,-0.0234,-0.0266,-0.0267,-0.032,-0.0342,-0.0372,-0.0423,-0.0461,-0.0535,-0.0574,-0.0606,-0.0589,-0.064,-0.0612,-0.0562,-0.059,-0.0584,-0.058,-0.0585,-0.0582,-0.0612,-0.0611,-0.0611,0,-0.0129,-0.013,-0.0174,-0.0172,-0.0182,-0.0244,-0.0236,-0.0269,-0.0325,-0.0331,-0.0367,-0.0452,-0.0513,-0.0538,-0.0538,-0.0572,-0.0589,-0.0584,-0.0578,-0.0575,-0.0572,-0.0579,-0.0576,-0.0607,-0.0607,-0.0608,-0.0608,0,-0.0089,-0.0091,-0.0084,-0.0103,-0.0119,-0.0121,-0.0171,-0.0185,-0.0222,-0.0257,-0.0289,-0.0368,-0.0414,-0.0447,-0.0493,-0.0503,-0.052,-0.056,-0.0592,-0.0559,-0.0569,-0.0568,-0.06,-0.0601,-0.0603,-0.0604,0,0,-0.0031,-0.0051,-0.0047,-0.0043,-0.0081,-0.0087,-0.0093,-0.0112,-0.0096,-0.0172,-0.016,-0.0254,-0.0293,-0.0331,-0.0393,-0.0431,-0.043,-0.0484,-0.0488,-0.0475,-0.0471,-0.0466,-0.0465,-0.0469,-0.0469,-0.0469,-0.0477,0,0.0016,0.0042,0.0016,0.0041,0.0048,0.0004,0.0009,-0.0017,-0.0043,-0.0047,-0.0134,-0.0156,-0.025,-0.0266,-0.0316,-0.0398,-0.0428,-0.0423,-0.0518,-0.052,-0.0508,-0.0465,-0.0461,-0.0467,-0.0477,-0.0477,-0.0477,0,0.0064,0.0076,0.0112,0.0118,0.012,0.013,0.0146,0.0142,0.0118,0.0097,0.0057,-0.0009,-0.0072,-0.0159,-0.0277,-0.0268,-0.0357,-0.0431,-0.0434,-0.0463,-0.0514,-0.0508,-0.0467,-0.0655,-0.0477,-0.0477,-0.0477,0,0.0129,0.0144,0.0181,0.018,0.0175,0.0198,0.0203,0.0196,0.0224,0.0199,0.0218,0.0121,0.0094,-0.0043,-0.0199,-0.0237,-0.032,-0.0392,-0.0467,-0.0467,-0.05,-0.0503,-0.0642,-0.0468,-0.0468,-0.0468,-0.0468,0,0.0187,0.0215,0.022,0.0238,0.0298,0.0272,0.0343,0.0334,0.0359,0.0427,0.0303,0.0338,0.0121,0.0041,-0.0132,-0.0275,-0.0266,-0.0439,-0.0466,-0.0463,-0.0463,-0.066,-0.0785,-0.0468,-0.0468,-0.0468,-0.0468,0,0.0248,0.0247,0.0289,0.0311,0.0329,0.0374,0.044,0.0501,0.0499,0.0591,0.0589,0.0518,0.0417,0.0207,0.0012,-0.0157,-0.0426,-0.0376,-0.0343,-0.0367,-0.0633,-0.0751,-0.0925,-0.0997,-0.0465,-0.0465,-0.0465,0,0.0277,0.0307,0.0355,0.0401,0.0419,0.0486,0.0548,0.0571,0.0655,0.0719,0.0784,0.0713,0.0698,0.0412,0.0099,-0.0178,-0.039,-0.0367,-0.0455,-0.0628,-0.0782,-0.0875,-0.093,-0.0455,-0.0455,-0.0455,-0.0454,0,0.0337,0.0356,0.0398,0.0496,0.0571,0.0657,0.0757,0.0845,0.0906,0.0987,0.1096,0.1088,0.0826,0.0555,0.0164,-0.0054,-0.0508,-0.0372,-0.0573,-0.0794,-0.0885,-0.0972,-0.0457,-0.0453,-0.0453,-0.0453,-0.0453,-0.0453,0.0389,0.0436,0.0503,0.0601,0.0696,0.0832,0.0927,0.1052,0.1201,0.1343,0.1334,0.1354,0.0942,0.0409,0.0103,-0.0471,-0.0498,-0.0672,-0.0799,-0.0874,-0.0959,-0.042,-0.044,-0.044,-0.044,-0.044,-0.044,0,0.0453,0.0513,0.0607,0.073,0.0859,0.0889,0.1072,0.1183,0.138,0.1499,0.1584,0.1392,0.0881,0.0345,-0.0412,-0.0824,-0.0989,-0.1066,-0.1223,-0.1257,-0.0793,-0.0808,-0.0882,-0.0881,-0.0881,-0.0881,-0.0881,-0.0881,0.0491,0.0593,0.0645,0.0853,0.0951,0.1126,0.1237,0.1401,0.152,0.1658,0.1668,0.1635,0.1231,-0.0125,-0.1046,-0.1267,-0.1572,-0.165,-0.1783,-0.1507,-0.1481,-0.1456,-0.1499,-0.1716,-0.1717,-0.2186,-0.2191,-0.2195]}],[{"header":{"parameterUnit":"m.s-1","parameterCategory":2,"la1":30.2991,"la2":30.254,"lo1":-89.0895,"lo2":-89.0444,"dy":0.0017,"dx":0.0017,"nx":28,"ny":28,"refTime":"2025-04-14T09:00:00:Z","depth":"2","parameterNumber":2,"parameterNumberName":"U-component_of_CURRENTS"},"data":[0,0,0,0,0,0,0,0,0,0,0,0,0,0,0,0,0,0,0,0,0,0,0,0,0,0,0,0,0,0,0,0,0,0,0,0,0,0,0,0,0,0,0,0,0,0,0,0,0,0,0,0,0,0,0,0,0,0,0.2577,0.2578,0,0.263,0.263,0.2631,0.2653,0.2654,0.2654,0.2654,0.2666,0.2666,0.2667,0,0,0,0,0,0,0,0,0,0,0,0,0,0.2506,0.2507,0.2577,0.2578,0.2579,0.263,0.263,0.2631,0.2653,0.2654,0.2654,0.2654,0.2666,0.2666,0.2667,0,0,0,0,0,0,0,0,0,0,0,0,0,0.2543,0.2507,0.2577,0.2598,0.26,0.263,0.263,0.2631,0.2653,0.2654,0.2654,0.2654,0.2666,0.2666,0.2667,0.2665,0,0,0.2668,0.2668,0,0,0,0,0,0,0,0,0.2541,0.2546,0.2594,0.2596,0.2599,0.2637,0.261,0.2641,0.2653,0.2631,0.2654,0.2654,0.2654,0.2655,0.2662,0.2666,0.2667,0.2668,0.2668,0.2668,0.2668,0,0,0,0,0,0,0,0.2539,0.2544,0.2596,0.2595,0.2598,0.2608,0.2613,0.2616,0.2638,0.2633,0.2635,0.2645,0.2655,0.2662,0.2663,0.2667,0.2668,0.2668,0.2668,0.2668,0.2768,0.277,0,0,0,0,0,0,0.2536,0.2541,0.2594,0.2598,0.2573,0.2609,0.2615,0.2623,0.2639,0.2643,0.2644,0.2645,0.2661,0.2662,0.2663,0.273,0.2668,0.2668,0.2669,0.2765,0.2768,0.2771,0,0,0,0,0,0,0.2534,0.254,0.2592,0.2572,0.258,0.2611,0.2619,0.2624,0.2642,0.2649,0.2651,0.2659,0.2662,0.2663,0.2692,0.2728,0.2669,0.2669,0.2762,0.2766,0.2769,0.282,0,0,0,0,0,0,0.2532,0.2539,0.2547,0.2572,0.2581,0.2619,0.262,0.2625,0.2648,0.265,0.2662,0.2663,0.2662,0.2691,0.2692,0.2727,0.2669,0.2759,0.2764,0.2768,0.2815,0.2825,0.2833,0,0,0,0,0,0.2529,0.2539,0.2547,0.2553,0.259,0.262,0.2625,0.2646,0.2649,0.2661,0.268,0.2663,0.2721,0.2693,0.2693,0.273,0.2757,0.2763,0.2768,0.2811,0.2823,0.2833,0,0,0,0,0,0,0.2512,0.2543,0.2552,0.2571,0.2598,0.2625,0.2642,0.2652,0.2676,0.268,0.2682,0.2685,0.2728,0.2725,0.2693,0.2777,0.2741,0.2747,0.2774,0.2785,0.2794,0.2798,0.2669,0,0,0,0,0,0.2512,0.2528,0.2559,0.2575,0.2592,0.2618,0.2634,0.2647,0.2671,0.2682,0.2697,0.272,0.275,0.2762,0.2782,0.2815,0.2836,0.2846,0.2855,0.2862,0.287,0.2942,0.2958,0.2789,0.2789,0.2788,0,0,0.2506,0.253,0.2536,0.2573,0.2597,0.2624,0.2628,0.2657,0.2687,0.2678,0.2727,0.2746,0.2766,0.2815,0.2834,0.2815,0.2924,0.2869,0.2875,0.2879,0.295,0.2966,0.2981,0.2792,0.2792,0.2791,0,0,0.2503,0.2531,0.2541,0.2568,0.2609,0.2633,0.2644,0.2682,0.2711,0.2751,0.2768,0.2812,0.2842,0.2878,0.2896,0.2966,0.2968,0.2977,0.3023,0.3094,0.3108,0.312,0.3172,0.3189,0.2982,0.2982,0.2982,0,0.2493,0.2521,0.2549,0.2572,0.2607,0.2639,0.2669,0.27,0.2745,0.2784,0.2774,0.2871,0.2876,0.2958,0.2985,0.2985,0.3021,0.2974,0.3104,0.3117,0.3129,0.3179,0.3197,0.2985,0.2985,0.2985,0.2984,0,0.2497,0.2528,0.2544,0.2588,0.2625,0.2661,0.2713,0.2755,0.2793,0.2831,0.292,0.2948,0.3009,0.3025,0.3019,0.3122,0.3118,0.3104,0.3071,0.3149,0.3197,0.3214,0.299,0.2989,0.2988,0.2987,0,0,0.2459,0.2531,0.2538,0.257,0.2646,0.2673,0.2744,0.2823,0.2883,0.2932,0.3021,0.3076,0.3104,0.3128,0.3147,0.3203,0.3309,0.3191,0.3194,0.3232,0.3466,0.3366,0.3376,0.3323,0.3326,0.3329,0.3466,0,0.246,0.2502,0.2551,0.2609,0.2644,0.2718,0.2785,0.2859,0.2934,0.3024,0.3086,0.3169,0.3142,0.3188,0.3241,0.33,0.3359,0.3273,0.3394,0.3397,0.329,0.3394,0.3135,0.3227,0.3483,0.3486,0.3488,0,0.2453,0.249,0.2541,0.2641,0.2666,0.2711,0.2844,0.2911,0.3045,0.3109,0.3205,0.3254,0.336,0.3319,0.3459,0.341,0.3443,0.3475,0.3481,0.3381,0.333,0.3192,0.3249,0.3517,0.3515,0.3513,0.3511,0,0.2411,0.249,0.2537,0.2566,0.2673,0.2729,0.2806,0.2939,0.3022,0.3181,0.3251,0.3374,0.3448,0.3522,0.3576,0.3537,0.372,0.3672,0.3616,0.3609,0.3407,0.3375,0.3773,0.3773,0.3773,0.3773,0.3772,0,0.2402,0.2437,0.252,0.2542,0.2621,0.2713,0.2826,0.2922,0.3077,0.3189,0.3293,0.3395,0.3503,0.3606,0.3639,0.3689,0.3776,0.3648,0.3649,0.3417,0.3386,0.3643,0.3626,0.3778,0.3776,0.3775,0.3775,0,0.235,0.2402,0.2453,0.2559,0.26,0.2659,0.2826,0.2912,0.306,0.3213,0.327,0.3444,0.358,0.3669,0.3807,0.3759,0.3825,0.3817,0.3528,0.3491,0.3648,0.3633,0.3771,0.3768,0.3767,0.3765,0.3764,0,0.233,0.2349,0.2442,0.2486,0.2541,0.2645,0.273,0.2891,0.2989,0.3236,0.3302,0.3485,0.3566,0.3719,0.3736,0.3788,0.384,0.3533,0.3394,0.3667,0.3655,0.3642,0.3629,0.3158,0.3151,0.3147,0.3142,0,0.2298,0.2326,0.2371,0.2454,0.2534,0.2617,0.2748,0.2802,0.3005,0.31,0.3252,0.3336,0.3511,0.344,0.351,0.3503,0.3499,0.3429,0.3835,0.3182,0.3096,0.3081,0.3088,0.3098,0.3102,0.3106,0.3108,0.311,0.2276,0.2291,0.2353,0.2424,0.2511,0.2574,0.2592,0.2712,0.2796,0.2907,0.3082,0.3103,0.3187,0.3146,0.3098,0.308,0.3299,0.313,0.3144,0.3163,0.3051,0.2965,0.2922,0.2925,0.2928,0.293,0.2933,0,0.223,0.2259,0.233,0.239,0.2427,0.251,0.2589,0.2557,0.2564,0.2703,0.2763,0.2582,0.2561,0.2662,0.2569,0.2575,0.2536,0.2464,0.2383,0.2432,0.2474,0.2323,0.2003,0.1999,0.1996,0.1993,0,0,0.2211,0.2224,0.2247,0.2274,0.2327,0.2306,0.2303,0.2267,0.2301,0.2247,0.2242,0.2437,0.2566,0.2225,0.2216,0.2085,0.2231,0.2015,0.2773,0.2726,0.2763,0.2888,0.2715,0,0,0,0,0]},{"header":{"parameterUnit":"m.s-1","parameterCategory":2,"la1":30.2991,"la2":30.254,"lo1":-89.0895,"lo2":-89.0444,"dy":0.0017,"dx":0.0017,"nx":28,"ny":28,"refTime":"2025-04-14T09:00:00:Z","depth":"2","parameterNumber":3,"parameterNumberName":"V-component_of_CURRENTS"},"data":[0,0,0,0,0,0,0,0,0,0,0,0,0,0,0,0,0,0,0,0,0,0,0,0,0,0,0,0,0,0,0,0,0,0,0,0,0,0,0,0,0,0,0,0,0,0,0,0,0,0,0,0,0,0,0,0,0,0,-0.0081,-0.0082,0,-0.0179,-0.018,-0.0181,-0.0242,-0.0242,-0.0242,-0.0243,-0.034,-0.0342,-0.0344,0,0,0,0,0,0,0,0,0,0,0,0,0,0.0009,0.0008,-0.0081,-0.0082,-0.0084,-0.0179,-0.018,-0.0182,-0.0242,-0.0242,-0.0243,-0.0243,-0.0339,-0.0342,-0.0344,0,0,0,0,0,0,0,0,0,0,0,0,0,-0.0053,0.0008,-0.0081,-0.0126,-0.0131,-0.0179,-0.018,-0.0182,-0.0242,-0.0242,-0.0243,-0.0243,-0.0338,-0.0341,-0.0345,-0.0355,0,0,-0.0355,-0.0357,0,0,0,0,0,0,0,0,-0.0049,-0.0056,-0.0118,-0.0123,-0.0128,-0.0199,-0.0184,-0.024,-0.0241,-0.0199,-0.0243,-0.0243,-0.0293,-0.03,-0.0316,-0.0359,-0.0364,-0.0355,-0.0357,-0.0359,-0.036,0,0,0,0,0,0,0,-0.0045,-0.0053,-0.0119,-0.0119,-0.0125,-0.0156,-0.0165,-0.0195,-0.0241,-0.0203,-0.0207,-0.0219,-0.0296,-0.0313,-0.0319,-0.0365,-0.0355,-0.0358,-0.036,-0.0362,-0.044,-0.044,0,0,0,0,0,0,-0.0031,-0.0048,-0.0116,-0.0122,-0.009,-0.0157,-0.0167,-0.0175,-0.0241,-0.0252,-0.0218,-0.0221,-0.0307,-0.0315,-0.0323,-0.0338,-0.0359,-0.0362,-0.0364,-0.044,-0.044,-0.044,0,0,0,0,0,0,-0.0029,-0.0036,-0.0112,-0.0088,-0.01,-0.0158,-0.0167,-0.0177,-0.0196,-0.0253,-0.0264,-0.0227,-0.0308,-0.0318,-0.0351,-0.0342,-0.0364,-0.0367,-0.044,-0.044,-0.044,-0.0369,0,0,0,0,0,0,-0.0025,-0.0034,-0.0035,-0.0087,-0.0101,-0.0133,-0.0167,-0.0179,-0.0203,-0.0208,-0.0264,-0.0274,-0.0309,-0.0345,-0.0354,-0.0347,-0.0369,-0.044,-0.044,-0.044,-0.0371,-0.0366,-0.0362,0,0,0,0,0,-0.0022,-0.0019,-0.0034,-0.0042,-0.01,-0.0133,-0.0142,-0.0186,-0.0202,-0.0205,-0.0247,-0.0272,-0.0352,-0.0348,-0.0358,-0.0352,-0.044,-0.044,-0.044,-0.0373,-0.0367,-0.0363,0,0,0,0,0,0,0.0018,-0.0026,-0.0044,-0.0055,-0.0088,-0.0143,-0.0153,-0.018,-0.0216,-0.0221,-0.0273,-0.0285,-0.0312,-0.0343,-0.0337,-0.0377,-0.04,-0.0402,-0.0346,-0.0341,-0.0337,-0.0308,-0.0372,0,0,0,0,0,0.0029,0.0022,-0.0027,-0.0034,-0.0049,-0.0098,-0.0118,-0.0145,-0.0185,-0.0202,-0.0244,-0.0287,-0.032,-0.0338,-0.0375,-0.0393,-0.0414,-0.0398,-0.0393,-0.0389,-0.0374,-0.0405,-0.0402,-0.044,-0.044,-0.044,0,0,0.0043,0.0018,0.0013,-0.0025,-0.0055,-0.0064,-0.0111,-0.0134,-0.014,-0.0205,-0.0228,-0.0274,-0.0323,-0.0347,-0.0361,-0.0371,-0.0389,-0.0389,-0.0385,-0.0372,-0.0405,-0.0401,-0.0398,-0.044,-0.044,-0.044,0,0,0.0071,0.0045,0.0049,0.0028,-0.001,-0.0039,-0.0041,-0.0094,-0.0117,-0.0144,-0.0193,-0.023,-0.0285,-0.0317,-0.0339,-0.0332,-0.0367,-0.0349,-0.0301,-0.0332,-0.0328,-0.0325,-0.034,-0.0339,-0.0344,-0.0344,-0.0344,0,0.0091,0.0088,0.0046,0.0046,0.0036,-0.002,-0.0014,-0.0042,-0.0099,-0.0108,-0.014,-0.0218,-0.0266,-0.0285,-0.029,-0.0319,-0.034,-0.0313,-0.0324,-0.0322,-0.032,-0.0336,-0.0336,-0.0341,-0.0341,-0.0342,-0.0342,0,0.0121,0.012,0.0121,0.0106,0.0092,0.0087,0.0045,0.003,-0.0006,-0.0036,-0.0072,-0.0143,-0.0184,-0.0212,-0.0251,-0.0263,-0.0282,-0.0315,-0.033,-0.0311,-0.033,-0.0331,-0.0336,-0.0337,-0.0338,-0.0339,0,0,0.0162,0.0147,0.0148,0.0158,0.0124,0.0121,0.0115,0.0097,0.0114,0.0041,0.0048,-0.0035,-0.0077,-0.0106,-0.0165,-0.0198,-0.0213,-0.0247,-0.025,-0.0248,-0.0269,-0.0284,-0.0288,-0.0251,-0.0251,-0.0251,-0.0283,0,0.0199,0.0222,0.02,0.023,0.0238,0.0201,0.0209,0.0189,0.0163,0.0156,0.0075,0.0052,-0.0035,-0.0053,-0.0101,-0.0181,-0.0214,-0.02,-0.0298,-0.0301,-0.0307,-0.0289,-0.0268,-0.0295,-0.0284,-0.0284,-0.0285,0,0.0234,0.0247,0.028,0.0301,0.0303,0.0315,0.0333,0.0335,0.0311,0.0289,0.0245,0.0182,0.0119,0.0041,-0.008,-0.0068,-0.0159,-0.0228,-0.0232,-0.0269,-0.0318,-0.0316,-0.0298,-0.0287,-0.0287,-0.0287,-0.0286,0,0.0284,0.0306,0.0339,0.0342,0.0353,0.0371,0.0381,0.0376,0.0406,0.0377,0.0392,0.0296,0.0266,0.0132,-0.0024,-0.0051,-0.0149,-0.0206,-0.0303,-0.0305,-0.0316,-0.0319,-0.0287,-0.0287,-0.0287,-0.0287,-0.0287,0,0.0329,0.0358,0.037,0.0389,0.045,0.0434,0.0502,0.0498,0.0522,0.0584,0.0465,0.049,0.0287,0.0199,0.0032,-0.0125,-0.0109,-0.0281,-0.0313,-0.0291,-0.0291,-0.0313,-0.0315,-0.0288,-0.0288,-0.0288,-0.0288,0,0.0375,0.0376,0.0425,0.0455,0.0473,0.0519,0.0589,0.0652,0.0648,0.0727,0.0722,0.0648,0.053,0.0326,0.0132,-0.0029,-0.0195,-0.0259,-0.0211,-0.0237,-0.0346,-0.0344,-0.0369,-0.0369,-0.037,-0.0371,-0.0371,0,0.0397,0.0424,0.0482,0.0529,0.0546,0.0614,0.068,0.071,0.0792,0.0836,0.0893,0.0802,0.0751,0.0453,0.0162,-0.0118,-0.0168,-0.028,-0.0342,-0.0325,-0.0353,-0.0351,-0.0349,-0.0327,-0.0327,-0.0327,-0.0327,0,0.0449,0.0468,0.0515,0.061,0.0685,0.0779,0.0875,0.0957,0.1019,0.1075,0.1143,0.11,0.0822,0.0545,0.0159,-0.0038,-0.0241,-0.0291,-0.0277,-0.0311,-0.0289,-0.0316,-0.0314,-0.0327,-0.0327,-0.0327,-0.0327,-0.0327,0.0496,0.0544,0.0611,0.0708,0.0804,0.0937,0.103,0.1139,0.1265,0.1355,0.1323,0.1256,0.0947,0.0445,0.0115,-0.0235,-0.0231,-0.0368,-0.0366,-0.0365,-0.0355,-0.0336,-0.0381,-0.0381,-0.0381,-0.0381,-0.0382,0,0.0559,0.0615,0.0708,0.0832,0.0958,0.099,0.1164,0.1257,0.1408,0.1459,0.1482,0.1187,0.0863,0.0503,-0.0013,-0.0325,-0.036,-0.0424,-0.0398,-0.0395,-0.0393,-0.0385,-0.0419,-0.042,-0.0421,-0.0422,0,0,0.0595,0.0694,0.0744,0.0946,0.1041,0.1206,0.131,0.1428,0.1496,0.1537,0.1494,0.1393,0.0965,0.0592,0.0171,-0.0123,-0.0194,-0.0189,-0.0126,-0.0044,-0.0038,-0.0329,-0.031,0,0,0,0,0]}],[{"header":{"parameterUnit":"m.s-1","parameterCategory":2,"la1":30.2991,"la2":30.254,"lo1":-89.0895,"lo2":-89.0444,"dy":0.0017,"dx":0.0017,"nx":28,"ny":28,"refTime":"2025-04-14T09:00:00:Z","depth":"4","parameterNumber":2,"parameterNumberName":"U-component_of_CURRENTS"},"data":[0,0,0,0,0,0,0,0,0,0,0,0,0,0,0,0,0,0,0,0,0,0,0,0,0,0,0,0,0,0,0,0,0,0,0,0,0,0,0,0,0,0,0,0,0,0,0,0,0,0,0,0,0,0,0,0,0,0,0.1465,0.1466,0,0.1513,0.1514,0.1514,0.1555,0.1556,0.1557,0.1557,0.1605,0.1606,0.1606,0,0,0,0,0,0,0,0,0,0,0,0,0,0.1368,0.1369,0.1465,0.1466,0.1467,0.1513,0.1514,0.1514,0.1555,0.1556,0.1557,0.1558,0.1605,0.1606,0.1606,0,0,0,0,0,0,0,0,0,0,0,0,0,0.1409,0.137,0.1465,0.1495,0.1499,0.1513,0.1514,0.1514,0.1555,0.1556,0.1557,0.1558,0.1605,0.1606,0.1606,0.1588,0,0,0.1609,0.1609,0,0,0,0,0,0,0,0,0.1407,0.1412,0.149,0.1493,0.1497,0.1533,0.1497,0.154,0.1555,0.153,0.1557,0.1559,0.1582,0.1585,0.1586,0.159,0.1592,0.1609,0.1609,0.161,0.161,0,0,0,0,0,0,0,0.1404,0.141,0.148,0.1491,0.1495,0.1494,0.1501,0.1505,0.1546,0.1532,0.1536,0.1547,0.1584,0.1586,0.1588,0.1593,0.1609,0.161,0.161,0.1611,0.1674,0.1675,0,0,0,0,0,0,0.1406,0.1408,0.1479,0.1482,0.1458,0.1495,0.1503,0.1517,0.1546,0.1553,0.1546,0.1549,0.1584,0.1587,0.159,0.1674,0.161,0.1611,0.1611,0.1673,0.1675,0.1676,0,0,0,0,0,0,0.1404,0.1412,0.1477,0.1449,0.1457,0.1496,0.1511,0.1518,0.1556,0.1557,0.1563,0.1583,0.1585,0.1589,0.1625,0.1673,0.1611,0.1612,0.1672,0.1674,0.1675,0.1776,0,0,0,0,0,0,0.1401,0.1411,0.1436,0.1449,0.1459,0.151,0.1511,0.1518,0.156,0.1565,0.159,0.1594,0.1586,0.1624,0.1626,0.1673,0.1612,0.167,0.1673,0.1675,0.1771,0.1781,0.179,0,0,0,0,0,0.1397,0.1421,0.1436,0.1446,0.1487,0.1512,0.1517,0.1545,0.1561,0.1583,0.1601,0.1595,0.164,0.1625,0.1627,0.1676,0.1669,0.1672,0.1674,0.1767,0.1779,0.179,0,0,0,0,0,0,0.1392,0.1429,0.1445,0.1481,0.1508,0.1521,0.1548,0.1564,0.1595,0.1611,0.1609,0.1614,0.1658,0.1649,0.1633,0.1698,0.1654,0.1657,0.1724,0.1735,0.1744,0.1735,0.1613,0,0,0,0,0,0.1402,0.1433,0.1461,0.1493,0.1511,0.1536,0.1556,0.1577,0.1599,0.1616,0.1632,0.1649,0.1662,0.1687,0.1687,0.1729,0.1725,0.176,0.1769,0.1777,0.177,0.1817,0.1831,0.1685,0.1685,0.1685,0,0,0.1408,0.1434,0.1452,0.1495,0.1518,0.1541,0.1551,0.1594,0.1619,0.1615,0.1663,0.1677,0.1676,0.1718,0.1739,0.1727,0.1818,0.178,0.1788,0.1776,0.1821,0.1836,0.1849,0.1687,0.1686,0.1686,0,0,0.1425,0.1462,0.1491,0.1513,0.1561,0.1572,0.1594,0.163,0.166,0.1701,0.1705,0.1749,0.1771,0.1788,0.1796,0.1854,0.1854,0.1866,0.1925,0.1973,0.1985,0.1996,0.2021,0.2033,0.1886,0.1886,0.1886,0,0.1433,0.1474,0.1503,0.1531,0.1553,0.1589,0.1617,0.1644,0.169,0.1719,0.1729,0.1787,0.1798,0.1851,0.188,0.1877,0.1899,0.1889,0.1987,0.1998,0.2007,0.2029,0.2042,0.1891,0.1891,0.189,0.189,0,0.1463,0.1501,0.152,0.1564,0.1588,0.1624,0.1657,0.1701,0.1742,0.1768,0.184,0.1864,0.1905,0.1926,0.1926,0.2008,0.1999,0.1985,0.1964,0.2029,0.2047,0.2058,0.1899,0.1897,0.1895,0.1894,0,0,0.1463,0.153,0.154,0.1562,0.1614,0.1631,0.1682,0.1735,0.1789,0.1839,0.1906,0.1952,0.1992,0.2001,0.2026,0.2078,0.2177,0.208,0.208,0.2111,0.2285,0.2151,0.215,0.2201,0.2203,0.2205,0.2275,0,0.1482,0.1533,0.1565,0.1607,0.163,0.1674,0.1709,0.1762,0.183,0.1904,0.1953,0.2024,0.2014,0.2075,0.212,0.2162,0.221,0.2159,0.2208,0.2209,0.2089,0.2159,0.2212,0.2283,0.2285,0.2287,0.2288,0,0.1498,0.153,0.1579,0.1627,0.1644,0.1678,0.1761,0.1804,0.1904,0.1971,0.2056,0.2097,0.2186,0.2173,0.2266,0.2244,0.2272,0.2292,0.2295,0.2136,0.2095,0.22,0.2308,0.2306,0.2305,0.2304,0.2302,0,0.1469,0.1536,0.1577,0.1594,0.1654,0.1698,0.1742,0.1833,0.1891,0.2041,0.2113,0.22,0.227,0.2317,0.2358,0.234,0.2445,0.2419,0.2312,0.2303,0.2358,0.2345,0.2478,0.2478,0.2478,0.2478,0.2478,0,0.1458,0.1492,0.1576,0.1594,0.1641,0.1695,0.1776,0.185,0.197,0.2036,0.2157,0.2223,0.2318,0.2377,0.2396,0.2384,0.2477,0.2324,0.2316,0.2398,0.2389,0.2366,0.2353,0.2481,0.248,0.2479,0.2479,0,0.141,0.147,0.1516,0.16,0.1628,0.1666,0.1775,0.1836,0.1975,0.2077,0.2132,0.2269,0.235,0.2411,0.2494,0.2421,0.2436,0.2408,0.2496,0.2492,0.225,0.2241,0.2289,0.2285,0.2281,0.2278,0.2276,0,0.1384,0.1408,0.1505,0.1529,0.1576,0.1647,0.169,0.1827,0.1892,0.2073,0.2101,0.2242,0.2312,0.2315,0.2393,0.242,0.2391,0.2376,0.2298,0.2245,0.2234,0.223,0.2225,0.2271,0.227,0.2269,0.2268,0,0.1324,0.1381,0.1421,0.1466,0.1522,0.1568,0.1648,0.1684,0.1833,0.1977,0.2041,0.2094,0.2175,0.2225,0.227,0.2279,0.2373,0.2339,0.2345,0.2271,0.2224,0.2215,0.2215,0.2256,0.2258,0.2259,0.226,0,0.128,0.1293,0.1349,0.1378,0.1443,0.1459,0.1518,0.1581,0.1655,0.1853,0.1865,0.2018,0.2144,0.2153,0.2191,0.2198,0.2158,0.2076,0.2095,0.2109,0.2017,0.1929,0.187,0,0,0,0,0,0.1216,0.1216,0.1243,0.1264,0.1329,0.136,0.1465,0.1532,0.1679,0.1681,0.177,0.1841,0.191,0.1987,0.1959,0.2107,0.2162,0.2064,0.2076,0.219,0.2204,0.2112,0,0,0,0,0,0,0.1164,0.1195,0.1203,0.1165,0.1164,0.1212,0.1281,0.1381,0.1387,0.155,0.16,0.1725,0.1822,0.1907,0.1921,0.1944,0.1913,0.2161,0.2156,0.2182,0.2195,0.2206,0.2116,0,0,0,0,0]},{"header":{"parameterUnit":"m.s-1","parameterCategory":2,"la1":30.2991,"la2":30.254,"lo1":-89.0895,"lo2":-89.0444,"dy":0.0017,"dx":0.0017,"nx":28,"ny":28,"refTime":"2025-04-14T09:00:00:Z","depth":"4","parameterNumber":3,"parameterNumberName":"V-component_of_CURRENTS"},"data":[0,0,0,0,0,0,0,0,0,0,0,0,0,0,0,0,0,0,0,0,0,0,0,0,0,0,0,0,0,0,0,0,0,0,0,0,0,0,0,0,0,0,0,0,0,0,0,0,0,0,0,0,0,0,0,0,0,0,0.0126,0.0125,0,0.0069,0.0068,0.0068,0.0042,0.0042,0.0041,0.0041,0.0015,0.0014,0.0014,0,0,0,0,0,0,0,0,0,0,0,0,0,0.0183,0.0183,0.0126,0.0125,0.0124,0.0069,0.0068,0.0068,0.0042,0.0042,0.0041,0.0041,0.0015,0.0014,0.0014,0,0,0,0,0,0,0,0,0,0,0,0,0,0.0147,0.0182,0.0126,0.0103,0.01,0.0069,0.0068,0.0068,0.0042,0.0042,0.0041,0.0041,0.0015,0.0015,0.0014,0.0011,0,0,0.0011,0.001,0,0,0,0,0,0,0,0,0.0149,0.0145,0.0107,0.0105,0.0102,0.0061,0.0079,0.005,0.0042,0.0066,0.0041,0.0041,0.0032,0.003,0.0021,0.001,0.0009,0.0011,0.001,0.001,0.001,0,0,0,0,0,0,0,0.0152,0.0147,0.0105,0.0106,0.0103,0.0086,0.0081,0.0073,0.0052,0.0064,0.0061,0.0052,0.0031,0.0022,0.0021,0.0008,0.0011,0.001,0.0009,0.0009,0.0,0.0,0,0,0,0,0,0,0.0157,0.015,0.0107,0.0103,0.0124,0.0085,0.008,0.0075,0.0052,0.0047,0.0052,0.0051,0.0024,0.0022,0.002,0.0025,0.001,0.0009,0.0008,-0.0,0.0,0.0,0,0,0,0,0,0,0.0159,0.0154,0.0109,0.0124,0.0116,0.0084,0.0079,0.0074,0.0066,0.0043,0.0039,0.005,0.0024,0.0021,0.0011,0.0023,0.0009,0.0008,-0.0001,-0.0,0.0,0.003,0,0,0,0,0,0,0.0161,0.0155,0.0157,0.0124,0.0116,0.0094,0.0079,0.0073,0.006,0.0058,0.0039,0.0036,0.0023,0.0012,0.001,0.0022,0.0007,-0.0001,-0.0,0.0,0.0028,0.0031,0.0033,0,0,0,0,0,0.0163,0.0164,0.0158,0.0152,0.0119,0.0094,0.0089,0.0066,0.006,0.0059,0.0043,0.0037,0.0014,0.0011,0.0009,0.0021,-0.0001,-0.0001,0.0,0.0027,0.003,0.0033,0,0,0,0,0,0,0.0187,0.016,0.0153,0.0145,0.0124,0.0089,0.0085,0.007,0.0055,0.0056,0.0036,0.0032,0.0029,0.002,0.0017,0.002,0.0008,0.0008,0.0029,0.0032,0.0035,0.0049,0.0006,0,0,0,0,0,0.0195,0.0192,0.0161,0.0156,0.0147,0.0118,0.0107,0.0091,0.0071,0.0064,0.0049,0.0037,0.003,0.0026,0.0017,0.0016,-0.0009,0.0024,0.0027,0.0029,0.0038,-0.0,-0.0,0.0003,0.0003,0.0003,0,0,0.0203,0.0188,0.0187,0.0162,0.0145,0.014,0.0111,0.0096,0.0098,0.0065,0.0065,0.0045,0.0031,0.003,0.0029,0.0023,0.0013,0.003,0.0032,0.004,0.0001,0.0,-0.0,0.0003,0.0003,0.0003,0,0,0.0217,0.0206,0.0207,0.0195,0.0171,0.0156,0.0154,0.0122,0.0116,0.0108,0.0087,0.0071,0.0061,0.0049,0.0044,0.0055,0.0027,0.0056,0.0082,0.0044,0.0044,0.0043,0.0003,-0.0002,0.0059,0.0059,0.0059,0,0.0229,0.0227,0.0203,0.0203,0.0202,0.0167,0.0174,0.0161,0.0132,0.0132,0.0116,0.009,0.0073,0.0071,0.0074,0.0062,0.0034,0.0071,0.0047,0.0046,0.0045,0.0004,-0.0002,0.006,0.006,0.006,0.006,0,0.024,0.0244,0.0245,0.024,0.0235,0.0234,0.0215,0.021,0.0198,0.0183,0.0173,0.0137,0.0123,0.0113,0.0098,0.0086,0.0066,0.0052,0.0039,0.0046,0.0003,-0.0004,0.0063,0.0062,0.0062,0.0061,0,0,0.0254,0.0254,0.0256,0.027,0.0259,0.0258,0.0266,0.0263,0.0275,0.0238,0.0243,0.0214,0.0186,0.0178,0.0147,0.0113,0.0071,0.0083,0.008,0.0043,-0.0018,-0.0032,-0.0041,0.0049,0.0048,0.0048,-0.0048,0,0.0272,0.0289,0.0284,0.0313,0.0324,0.0313,0.0329,0.0324,0.0314,0.0308,0.0264,0.0256,0.0215,0.0206,0.0163,0.0098,0.0057,0.0097,-0.0018,-0.0021,-0.0036,-0.0048,0.0045,-0.0052,-0.0054,-0.0055,-0.0056,0,0.0284,0.0299,0.0329,0.0363,0.0368,0.0383,0.041,0.0421,0.0407,0.0397,0.0369,0.0329,0.0279,0.0239,0.0123,0.0149,0.0073,0.0013,0.0008,-0.0017,-0.0047,-0.0059,-0.0068,-0.0067,-0.0066,-0.0065,-0.0064,0,0.0306,0.0333,0.0365,0.0374,0.0401,0.0422,0.0443,0.0449,0.0474,0.0454,0.0454,0.0384,0.0347,0.0245,0.0118,0.0119,-0.002,-0.0034,-0.0122,-0.0124,-0.0096,-0.0094,-0.0118,-0.0118,-0.0118,-0.0117,-0.0117,0,0.0325,0.0353,0.0381,0.0399,0.0454,0.0463,0.0518,0.0525,0.0542,0.057,0.0504,0.0487,0.0346,0.0247,0.0131,-0.0017,-0.0014,-0.0119,-0.0149,-0.0082,-0.0078,-0.0101,-0.0098,-0.0121,-0.012,-0.012,-0.0119,0,0.034,0.0354,0.04,0.0443,0.0464,0.0508,0.0578,0.062,0.0623,0.0651,0.0646,0.056,0.0429,0.0279,0.0103,0.0004,-0.0135,-0.0189,-0.0109,-0.0133,-0.0219,-0.0213,-0.0292,-0.0294,-0.0295,-0.0296,-0.0296,0,0.0346,0.0368,0.0435,0.0475,0.0498,0.0565,0.0619,0.0659,0.0699,0.069,0.0698,0.0587,0.0506,0.0253,0.0087,-0.0139,-0.0171,-0.0247,-0.0231,-0.0215,-0.0237,-0.0229,-0.0222,-0.0298,-0.0298,-0.0299,-0.0299,0,0.0365,0.039,0.0432,0.051,0.0575,0.0653,0.0722,0.0753,0.079,0.079,0.0741,0.0608,0.0453,0.0253,0.0073,-0.0088,-0.0198,-0.0259,-0.0258,-0.0243,-0.0223,-0.0242,-0.0233,-0.0303,-0.0302,-0.0302,-0.0302,0,0.0387,0.0421,0.0477,0.055,0.0635,0.0712,0.0747,0.0785,0.0824,0.0807,0.0782,0.0622,0.0527,0.0278,0.0113,-0.0049,-0.009,-0.0141,-0.0147,-0.0145,-0.0075,-0.0026,-0.0072,0,0,0,0,0,0.0405,0.0446,0.0512,0.0593,0.0677,0.0728,0.0807,0.0832,0.0853,0.0832,0.0813,0.0672,0.0422,0.031,0.0147,0.008,-0.0127,-0.0118,-0.019,-0.0324,-0.0319,-0.0264,0,0,0,0,0,0,0.042,0.048,0.0513,0.0617,0.0676,0.0775,0.0829,0.0844,0.0826,0.0815,0.0689,0.0626,0.0385,0.0519,0.0143,0.0092,0.0022,-0.0233,-0.0237,-0.0326,-0.0322,-0.0319,-0.0261,0,0,0,0,0]}]]